Time,TemperatureF,DewpointF,PressureIn,WindDirection,WindDirectionDegrees,WindSpeedMPH,WindSpeedGustMPH,Humidity,HourlyPrecipIn,Conditions,Clouds,dailyrainin,SoftwareType,DateUTC
2013-09-07 00:00:00,69.2,62.8,30.02,East,92,0.0,0.0,80,0.00,,,0.00,VWS V14.01,2013-09-07 05:00:00,
2013-09-07 00:01:00,66.4,61.4,30.02,East,92,0.0,0.0,84,0.00,,,0.00,VWS V14.01,2013-09-07 05:01:00,
2013-09-07 00:06:00,66.1,61.5,30.01,East,92,0.0,0.0,85,0.00,,,0.00,VWS V14.01,2013-09-07 05:06:00,
2013-09-07 00:11:00,66.0,61.4,30.02,East,92,0.0,0.0,85,0.00,,,0.00,VWS V14.01,2013-09-07 05:11:00,
2013-09-07 00:16:00,65.8,61.2,30.02,East,92,0.0,0.0,85,0.00,,,0.00,VWS V14.01,2013-09-07 05:16:00,
2013-09-07 00:21:00,65.7,61.1,30.02,East,92,0.0,0.0,85,0.00,,,0.00,VWS V14.01,2013-09-07 05:21:00,
2013-09-07 00:26:00,65.5,60.9,30.01,East,92,0.0,0.0,85,0.00,,,0.00,VWS V14.01,2013-09-07 05:26:00,
2013-09-07 00:30:00,67.5,62.2,30.01,East,92,0.0,0.0,83,0.00,,,0.00,VWS V14.01,2013-09-07 05:30:00,
2013-09-07 00:31:00,65.4,61.1,30.01,East,92,0.0,0.0,86,0.00,,,0.00,VWS V14.01,2013-09-07 05:31:00,
2013-09-07 00:36:00,65.3,61.0,30.01,East,92,0.0,0.0,86,0.00,,,0.00,VWS V14.01,2013-09-07 05:36:00,
2013-09-07 00:41:00,65.2,60.9,30.01,East,92,0.0,0.0,86,0.00,,,0.00,VWS V14.01,2013-09-07 05:41:00,
2013-09-07 00:46:00,65.0,60.7,30.01,East,92,0.0,0.0,86,0.00,,,0.00,VWS V14.01,2013-09-07 05:46:00,
2013-09-07 00:51:00,64.9,60.6,30.01,East,92,0.0,0.0,86,0.00,,,0.00,VWS V14.01,2013-09-07 05:51:00,
2013-09-07 00:56:00,64.8,60.5,30.01,East,92,0.0,0.0,86,0.00,,,0.00,VWS V14.01,2013-09-07 05:56:00,
2013-09-07 01:01:00,64.6,60.3,30.01,East,92,0.0,0.0,86,0.00,,,0.00,VWS V14.01,2013-09-07 06:01:00,
2013-09-07 01:06:00,64.5,60.2,30.01,East,92,0.0,0.0,86,0.00,,,0.00,VWS V14.01,2013-09-07 06:06:00,
2013-09-07 01:11:00,64.4,60.1,30.01,East,92,0.0,0.0,86,0.00,,,0.00,VWS V14.01,2013-09-07 06:11:00,
2013-09-07 01:16:00,64.2,59.9,30.01,East,92,0.0,0.0,86,0.00,,,0.00,VWS V14.01,2013-09-07 06:16:00,
2013-09-07 01:21:00,64.0,59.7,30.01,East,92,0.0,0.0,86,0.00,,,0.00,VWS V14.01,2013-09-07 06:21:00,
2013-09-07 01:26:00,64.0,59.7,30.01,East,92,0.0,0.0,86,0.00,,,0.00,VWS V14.01,2013-09-07 06:26:00,
2013-09-07 01:30:00,65.4,61.1,30.02,East,92,0.0,0.0,86,0.00,,,0.00,VWS V14.01,2013-09-07 06:30:00,
2013-09-07 01:31:00,63.9,59.6,30.01,East,92,0.0,0.0,86,0.00,,,0.00,VWS V14.01,2013-09-07 06:31:00,
2013-09-07 01:36:00,63.9,59.6,30.01,East,92,0.0,0.0,86,0.00,,,0.00,VWS V14.01,2013-09-07 06:36:00,
2013-09-07 01:41:00,63.8,59.5,30.01,East,92,0.0,0.0,86,0.00,,,0.00,VWS V14.01,2013-09-07 06:41:00,
2013-09-07 01:46:00,63.8,59.5,30.01,East,92,0.0,0.0,86,0.00,,,0.00,VWS V14.01,2013-09-07 06:46:00,
2013-09-07 01:51:00,63.6,59.3,30.01,East,92,0.0,0.0,86,0.00,,,0.00,VWS V14.01,2013-09-07 06:51:00,
2013-09-07 01:56:00,63.5,59.2,30.01,East,92,0.0,0.0,86,0.00,,,0.00,VWS V14.01,2013-09-07 06:56:00,
2013-09-07 02:00:00,64.7,60.4,30.01,East,92,0.0,0.0,86,0.00,,,0.00,VWS V14.01,2013-09-07 07:00:00,
2013-09-07 02:01:00,63.4,59.2,30.01,East,92,0.0,0.0,86,0.00,,,0.00,VWS V14.01,2013-09-07 07:01:00,
2013-09-07 02:06:00,63.3,59.0,30.01,East,92,0.0,0.0,86,0.00,,,0.00,VWS V14.01,2013-09-07 07:06:00,
2013-09-07 02:11:00,63.2,59.0,30.01,East,92,0.0,0.0,86,0.00,,,0.00,VWS V14.01,2013-09-07 07:11:00,
2013-09-07 02:16:00,63.1,58.8,30.01,East,92,0.0,0.0,86,0.00,,,0.00,VWS V14.01,2013-09-07 07:16:00,
2013-09-07 02:21:00,62.9,58.7,30.01,East,92,0.0,0.0,86,0.00,,,0.00,VWS V14.01,2013-09-07 07:21:00,
2013-09-07 02:26:00,62.8,58.6,30.01,East,92,0.0,0.0,86,0.00,,,0.00,VWS V14.01,2013-09-07 07:26:00,
2013-09-07 02:30:00,63.9,59.6,30.01,East,92,0.0,0.0,86,0.00,,,0.00,VWS V14.01,2013-09-07 07:30:00,
2013-09-07 02:31:00,62.8,58.6,30.01,East,92,0.0,0.0,86,0.00,,,0.00,VWS V14.01,2013-09-07 07:31:00,
2013-09-07 02:36:00,62.7,58.5,30.01,East,92,0.0,0.0,86,0.00,,,0.00,VWS V14.01,2013-09-07 07:36:00,
2013-09-07 02:41:00,62.6,58.4,30.01,East,92,0.0,0.0,86,0.00,,,0.00,VWS V14.01,2013-09-07 07:41:00,
2013-09-07 02:46:00,62.5,58.3,30.01,East,92,0.0,0.0,86,0.00,,,0.00,VWS V14.01,2013-09-07 07:46:00,
2013-09-07 02:51:00,62.4,58.2,30.01,East,92,0.0,0.0,86,0.00,,,0.00,VWS V14.01,2013-09-07 07:51:00,
2013-09-07 02:56:00,62.4,58.5,30.01,East,92,0.0,0.0,87,0.00,,,0.00,VWS V14.01,2013-09-07 07:56:00,
2013-09-07 03:00:00,63.4,59.2,30.01,East,92,0.0,0.0,86,0.00,,,0.00,VWS V14.01,2013-09-07 08:00:00,
2013-09-07 03:01:00,62.3,58.4,30.01,East,92,0.0,0.0,87,0.00,,,0.00,VWS V14.01,2013-09-07 08:01:00,
2013-09-07 03:06:00,62.3,58.4,30.01,East,92,0.0,0.0,87,0.00,,,0.00,VWS V14.01,2013-09-07 08:06:00,
2013-09-07 03:11:00,62.2,58.3,30.01,East,92,0.0,0.0,87,0.00,,,0.00,VWS V14.01,2013-09-07 08:11:00,
2013-09-07 03:16:00,62.3,58.4,30.01,East,92,0.0,0.0,87,0.00,,,0.00,VWS V14.01,2013-09-07 08:16:00,
2013-09-07 03:21:00,62.5,58.6,30.01,East,92,0.0,0.0,87,0.00,,,0.00,VWS V14.01,2013-09-07 08:21:00,
2013-09-07 03:26:00,62.9,59.0,30.01,East,92,0.0,0.0,87,0.00,,,0.00,VWS V14.01,2013-09-07 08:26:00,
2013-09-07 03:30:00,62.8,58.6,30.01,East,92,0.0,0.0,86,0.00,,,0.00,VWS V14.01,2013-09-07 08:30:00,
2013-09-07 03:31:00,63.3,59.0,30.01,East,92,0.0,0.0,86,0.00,,,0.00,VWS V14.01,2013-09-07 08:31:00,
2013-09-07 03:36:00,63.4,58.8,30.01,East,92,0.0,0.0,85,0.00,,,0.00,VWS V14.01,2013-09-07 08:36:00,
2013-09-07 03:41:00,63.4,58.8,30.01,East,92,0.0,0.0,85,0.00,,,0.00,VWS V14.01,2013-09-07 08:41:00,
2013-09-07 03:46:00,63.3,58.7,30.01,East,92,0.0,0.0,85,0.00,,,0.00,VWS V14.01,2013-09-07 08:46:00,
2013-09-07 03:51:00,63.2,58.6,30.02,East,92,0.0,0.0,85,0.00,,,0.00,VWS V14.01,2013-09-07 08:51:00,
2013-09-07 03:56:00,63.2,58.6,30.01,East,92,0.0,0.0,85,0.00,,,0.00,VWS V14.01,2013-09-07 08:56:00,
2013-09-07 04:00:00,62.3,58.4,30.01,East,92,0.0,0.0,87,0.00,,,0.00,VWS V14.01,2013-09-07 09:00:00,
2013-09-07 04:01:00,63.1,58.2,30.02,East,92,0.0,0.0,84,0.00,,,0.00,VWS V14.01,2013-09-07 09:01:00,
2013-09-07 04:06:00,62.9,58.0,30.02,East,92,0.0,0.0,84,0.00,,,0.00,VWS V14.01,2013-09-07 09:06:00,
2013-09-07 04:11:00,62.6,58.0,30.02,East,92,0.0,0.0,85,0.00,,,0.00,VWS V14.01,2013-09-07 09:11:00,
2013-09-07 04:16:00,62.5,58.3,30.02,East,92,0.0,0.0,86,0.00,,,0.00,VWS V14.01,2013-09-07 09:16:00,
2013-09-07 04:21:00,62.4,58.5,30.02,East,92,0.0,0.0,87,0.00,,,0.00,VWS V14.01,2013-09-07 09:21:00,
2013-09-07 04:26:00,62.4,58.5,30.01,East,92,0.0,0.0,87,0.00,,,0.00,VWS V14.01,2013-09-07 09:26:00,
2013-09-07 04:30:00,63.3,59.0,30.01,East,92,0.0,0.0,86,0.00,,,0.00,VWS V14.01,2013-09-07 09:30:00,
2013-09-07 04:31:00,62.4,58.5,30.01,East,92,0.0,0.0,87,0.00,,,0.00,VWS V14.01,2013-09-07 09:31:00,
2013-09-07 04:36:00,62.5,58.9,30.01,East,92,0.0,0.0,88,0.00,,,0.00,VWS V14.01,2013-09-07 09:36:00,
2013-09-07 04:41:00,62.7,59.4,30.01,East,92,0.0,0.0,89,0.00,,,0.00,VWS V14.01,2013-09-07 09:41:00,
2013-09-07 04:46:00,63.2,59.6,30.01,East,92,0.0,0.0,88,0.00,,,0.00,VWS V14.01,2013-09-07 09:46:00,
2013-09-07 04:51:00,63.6,60.0,30.01,East,92,0.0,0.0,88,0.00,,,0.00,VWS V14.01,2013-09-07 09:51:00,
2013-09-07 04:56:00,63.9,60.0,30.01,East,92,0.0,0.0,87,0.00,,,0.00,VWS V14.01,2013-09-07 09:56:00,
2013-09-07 05:00:00,63.1,58.2,30.01,East,92,0.0,0.0,84,0.00,,,0.00,VWS V14.01,2013-09-07 10:00:00,
2013-09-07 05:01:00,63.9,59.0,30.01,East,92,0.0,0.0,84,0.00,,,0.00,VWS V14.01,2013-09-07 10:01:00,
2013-09-07 05:06:00,63.6,58.7,30.01,East,92,0.0,0.0,84,0.00,,,0.00,VWS V14.01,2013-09-07 10:06:00,
2013-09-07 05:11:00,63.4,58.8,30.01,East,92,0.0,0.0,85,0.00,,,0.00,VWS V14.01,2013-09-07 10:11:00,
2013-09-07 05:17:00,63.2,59.0,30.01,East,92,0.0,0.0,86,0.00,,,0.00,VWS V14.01,2013-09-07 10:17:00,
2013-09-07 05:22:00,63.1,59.2,30.01,East,92,0.0,0.0,87,0.00,,,0.00,VWS V14.01,2013-09-07 10:22:00,
2013-09-07 05:27:00,63.2,59.6,30.01,East,92,0.0,0.0,88,0.00,,,0.00,VWS V14.01,2013-09-07 10:27:00,
2013-09-07 05:30:00,62.4,58.5,30.01,East,92,0.0,0.0,87,0.00,,,0.00,VWS V14.01,2013-09-07 10:30:00,
2013-09-07 05:32:00,63.3,59.7,30.01,East,92,0.0,0.0,88,0.00,,,0.00,VWS V14.01,2013-09-07 10:32:00,
2013-09-07 05:37:00,63.6,60.0,30.01,East,92,0.0,0.0,88,0.00,,,0.00,VWS V14.01,2013-09-07 10:37:00,
2013-09-07 05:42:00,63.8,59.9,30.01,East,92,0.0,0.0,87,0.00,,,0.00,VWS V14.01,2013-09-07 10:42:00,
2013-09-07 05:47:00,63.9,60.0,30.01,East,92,0.0,0.0,87,0.00,,,0.00,VWS V14.01,2013-09-07 10:47:00,
2013-09-07 05:52:00,63.9,60.0,30.01,East,92,0.0,0.0,87,0.00,,,0.00,VWS V14.01,2013-09-07 10:52:00,
2013-09-07 05:57:00,63.9,60.0,30.01,East,92,0.0,0.0,87,0.00,,,0.00,VWS V14.01,2013-09-07 10:57:00,
2013-09-07 06:00:00,63.9,59.3,30.01,East,92,0.0,0.0,85,0.00,,,0.00,VWS V14.01,2013-09-07 11:00:00,
2013-09-07 06:02:00,63.9,60.0,30.01,East,92,0.0,0.0,87,0.00,,,0.00,VWS V14.01,2013-09-07 11:02:00,
2013-09-07 06:07:00,64.0,60.1,30.01,East,92,0.0,0.0,87,0.00,,,0.00,VWS V14.01,2013-09-07 11:07:00,
2013-09-07 06:12:00,64.0,60.1,30.01,East,92,0.0,0.0,87,0.00,,,0.00,VWS V14.01,2013-09-07 11:12:00,
2013-09-07 06:17:00,64.1,60.2,30.01,East,92,0.0,0.0,87,0.00,,,0.00,VWS V14.01,2013-09-07 11:17:00,
2013-09-07 06:22:00,64.1,60.2,30.01,East,92,0.0,0.0,87,0.00,,,0.00,VWS V14.01,2013-09-07 11:22:00,
2013-09-07 06:27:00,64.2,60.3,30.01,East,92,0.0,0.0,87,0.00,,,0.00,VWS V14.01,2013-09-07 11:27:00,
2013-09-07 06:30:00,63.3,59.7,30.01,East,92,0.0,0.0,88,0.00,,,0.00,VWS V14.01,2013-09-07 11:30:00,
2013-09-07 06:32:00,64.3,60.3,30.01,East,92,0.0,0.0,87,0.00,,,0.00,VWS V14.01,2013-09-07 11:32:00,
2013-09-07 06:37:00,64.2,60.3,30.01,East,92,0.0,0.0,87,0.00,,,0.00,VWS V14.01,2013-09-07 11:37:00,
2013-09-07 06:42:00,64.1,59.8,30.02,East,92,0.0,0.0,86,0.00,,,0.00,VWS V14.01,2013-09-07 11:42:00,
2013-09-07 06:47:00,64.2,60.6,30.02,East,92,0.0,0.0,88,0.00,,,0.00,VWS V14.01,2013-09-07 11:47:00,
2013-09-07 06:52:00,64.4,60.8,30.02,East,92,0.0,0.0,88,0.00,,,0.00,VWS V14.01,2013-09-07 11:52:00,
2013-09-07 06:57:00,64.8,60.8,30.02,East,92,0.0,0.0,87,0.00,,,0.00,VWS V14.01,2013-09-07 11:57:00,
2013-09-07 07:00:00,63.9,60.0,30.01,East,92,0.0,0.0,87,0.00,,,0.00,VWS V14.01,2013-09-07 12:00:00,
2013-09-07 07:02:00,65.2,61.2,30.02,East,92,0.0,0.0,87,0.00,,,0.00,VWS V14.01,2013-09-07 12:02:00,
2013-09-07 07:07:00,65.4,61.1,30.02,East,92,0.0,0.0,86,0.00,,,0.00,VWS V14.01,2013-09-07 12:07:00,
2013-09-07 07:12:00,65.7,61.4,30.02,East,92,0.0,0.0,86,0.00,,,0.00,VWS V14.01,2013-09-07 12:12:00,
2013-09-07 07:17:00,65.8,61.2,30.02,East,92,0.0,0.0,85,0.00,,,0.00,VWS V14.01,2013-09-07 12:17:00,
2013-09-07 07:22:00,66.0,61.4,30.02,East,92,0.0,0.0,85,0.00,,,0.00,VWS V14.01,2013-09-07 12:22:00,
2013-09-07 07:27:00,66.2,61.6,30.02,East,90,0.0,0.0,85,0.00,,,0.00,VWS V14.01,2013-09-07 12:27:00,
2013-09-07 07:30:00,64.3,60.3,30.01,East,92,0.0,0.0,87,0.00,,,0.00,VWS V14.01,2013-09-07 12:30:00,
2013-09-07 07:32:00,66.5,61.9,30.02,East,88,0.0,0.0,85,0.00,,,0.00,VWS V14.01,2013-09-07 12:32:00,
2013-09-07 07:37:00,66.8,62.2,30.03,East,89,0.0,0.0,85,0.00,,,0.00,VWS V14.01,2013-09-07 12:37:00,
2013-09-07 07:42:00,67.0,62.0,30.02,East,88,0.0,0.0,84,0.00,,,0.00,VWS V14.01,2013-09-07 12:42:00,
2013-09-07 07:47:00,67.2,62.2,30.02,East,88,0.0,0.0,84,0.00,,,0.00,VWS V14.01,2013-09-07 12:47:00,
2013-09-07 07:52:00,67.4,62.4,30.02,East,88,0.0,0.0,84,0.00,,,0.00,VWS V14.01,2013-09-07 12:52:00,
2013-09-07 07:57:00,67.6,62.6,30.02,East,88,0.0,0.0,84,0.00,,,0.00,VWS V14.01,2013-09-07 12:57:00,
2013-09-07 08:00:00,65.0,61.0,30.02,East,92,0.0,0.0,87,0.00,,,0.00,VWS V14.01,2013-09-07 13:00:00,
2013-09-07 08:02:00,67.9,62.5,30.02,East,88,0.0,0.0,83,0.00,,,0.00,VWS V14.01,2013-09-07 13:02:00,
2013-09-07 08:07:00,68.2,62.8,30.02,East,89,0.0,0.0,83,0.00,,,0.00,VWS V14.01,2013-09-07 13:07:00,
2013-09-07 08:12:00,68.5,63.1,30.01,East,88,0.0,0.0,83,0.00,,,0.00,VWS V14.01,2013-09-07 13:12:00,
2013-09-07 08:17:00,68.7,63.3,30.01,East,88,0.0,0.0,83,0.00,,,0.00,VWS V14.01,2013-09-07 13:17:00,
2013-09-07 08:22:00,69.0,63.6,30.01,East,88,0.0,0.0,83,0.00,,,0.00,VWS V14.01,2013-09-07 13:22:00,
2013-09-07 08:27:00,69.4,64.0,30.01,East,88,0.0,0.0,83,0.00,,,0.00,VWS V14.01,2013-09-07 13:27:00,
2013-09-07 08:30:00,66.4,61.8,30.02,East,89,0.0,0.0,85,0.00,,,0.00,VWS V14.01,2013-09-07 13:30:00,
2013-09-07 08:32:00,69.9,64.5,30.01,East,88,0.0,0.0,83,0.00,,,0.00,VWS V14.01,2013-09-07 13:32:00,
2013-09-07 08:37:00,70.4,65.0,30.01,East,88,0.0,0.0,83,0.00,,,0.00,VWS V14.01,2013-09-07 13:37:00,
2013-09-07 08:42:00,71.0,65.2,30.01,East,88,0.0,0.0,82,0.00,,,0.00,VWS V14.01,2013-09-07 13:42:00,
2013-09-07 08:47:00,71.7,65.6,30.01,WNW,297,0.0,5.0,81,0.00,,,0.00,VWS V14.01,2013-09-07 13:47:00,
2013-09-07 08:52:00,72.5,65.6,30.01,WNW,297,0.0,5.0,79,0.00,,,0.00,VWS V14.01,2013-09-07 13:52:00,
2013-09-07 08:57:00,73.3,66.0,30.01,WNW,297,0.0,5.0,78,0.00,,,0.00,VWS V14.01,2013-09-07 13:57:00,
2013-09-07 09:00:00,67.8,62.8,30.02,East,88,0.0,0.0,84,0.00,,,0.00,VWS V14.01,2013-09-07 14:00:00,
2013-09-07 09:02:00,74.1,66.4,30.01,WNW,297,0.0,0.0,77,0.00,,,0.00,VWS V14.01,2013-09-07 14:02:00,
2013-09-07 09:07:00,74.7,66.6,30.01,WNW,297,0.0,2.0,76,0.00,,,0.00,VWS V14.01,2013-09-07 14:07:00,
2013-09-07 09:12:00,75.3,66.8,30.01,WNW,297,0.0,2.0,75,0.00,,,0.00,VWS V14.01,2013-09-07 14:12:00,
2013-09-07 09:17:00,76.0,67.1,30.01,WNW,297,0.0,2.0,74,0.00,,,0.00,VWS V14.01,2013-09-07 14:17:00,
2013-09-07 09:22:00,76.6,66.9,30.01,WNW,297,0.0,4.0,72,0.00,,,0.00,VWS V14.01,2013-09-07 14:22:00,
2013-09-07 09:27:00,77.0,66.9,30.01,WNW,294,0.0,4.0,71,0.00,,,0.00,VWS V14.01,2013-09-07 14:27:00,
2013-09-07 09:30:00,69.7,64.7,30.01,East,88,0.0,0.0,84,0.00,,,0.00,VWS V14.01,2013-09-07 14:30:00,
2013-09-07 09:32:00,77.6,67.5,30.01,ESE,106,4.0,4.0,71,0.00,,,0.00,VWS V14.01,2013-09-07 14:32:00,
2013-09-07 09:37:00,78.3,66.9,30.01,WNW,299,1.0,6.0,68,0.00,,,0.00,VWS V14.01,2013-09-07 14:37:00,
2013-09-07 09:42:00,78.8,67.4,30.01,WNW,299,0.0,6.0,68,0.00,,,0.00,VWS V14.01,2013-09-07 14:42:00,
2013-09-07 09:47:00,79.3,67.0,30.00,WNW,295,0.0,6.0,66,0.00,,,0.00,VWS V14.01,2013-09-07 14:47:00,
2013-09-07 09:52:00,79.9,67.1,30.01,WNW,295,0.0,6.0,65,0.00,,,0.00,VWS V14.01,2013-09-07 14:52:00,
2013-09-07 09:57:00,80.7,67.4,30.00,WNW,295,0.0,6.0,64,0.00,,,0.00,VWS V14.01,2013-09-07 14:57:00,
2013-09-07 10:00:00,73.8,66.2,30.01,WNW,297,0.0,5.0,77,0.00,,,0.00,VWS V14.01,2013-09-07 15:00:00,
2013-09-07 10:02:00,81.4,67.6,30.00,South,190,0.0,6.0,63,0.00,,,0.00,VWS V14.01,2013-09-07 15:02:00,
2013-09-07 10:07:00,81.8,67.5,30.00,SSE,167,0.0,6.0,62,0.00,,,0.00,VWS V14.01,2013-09-07 15:07:00,
2013-09-07 10:12:00,82.3,68.0,30.00,West,266,0.0,6.0,62,0.00,,,0.00,VWS V14.01,2013-09-07 15:12:00,
2013-09-07 10:17:00,82.6,67.3,30.00,West,267,0.0,6.0,60,0.00,,,0.00,VWS V14.01,2013-09-07 15:17:00,
2013-09-07 10:22:00,82.7,66.9,30.00,West,267,1.0,6.0,59,0.00,,,0.00,VWS V14.01,2013-09-07 15:22:00,
2013-09-07 10:27:00,82.7,67.4,30.00,WNW,284,0.0,6.0,60,0.00,,,0.00,VWS V14.01,2013-09-07 15:27:00,
2013-09-07 10:30:00,77.4,66.9,30.01,ESE,109,0.0,5.0,70,0.00,,,0.00,VWS V14.01,2013-09-07 15:30:00,
2013-09-07 10:32:00,82.7,67.4,30.00,WNW,289,1.0,4.0,60,0.00,,,0.00,VWS V14.01,2013-09-07 15:32:00,
2013-09-07 10:37:00,83.0,67.2,30.00,WNW,288,2.0,4.0,59,0.00,,,0.00,VWS V14.01,2013-09-07 15:37:00,
2013-09-07 10:42:00,83.5,67.2,30.00,WNW,286,0.0,6.0,58,0.00,,,0.00,VWS V14.01,2013-09-07 15:42:00,
2013-09-07 10:47:00,84.1,67.7,29.99,WNW,286,1.0,6.0,58,0.00,,,0.00,VWS V14.01,2013-09-07 15:47:00,
2013-09-07 10:52:00,84.4,67.5,30.00,WNW,285,0.0,6.0,57,0.00,,,0.00,VWS V14.01,2013-09-07 15:52:00,
2013-09-07 10:57:00,85.0,68.6,29.99,WNW,286,0.0,6.0,58,0.00,,,0.00,VWS V14.01,2013-09-07 15:57:00,
2013-09-07 11:02:00,85.7,67.7,29.99,WNW,284,0.0,6.0,55,0.00,,,0.00,VWS V14.01,2013-09-07 16:02:00,
2013-09-07 11:07:00,86.2,68.2,29.99,WNW,284,0.0,6.0,55,0.00,,,0.00,VWS V14.01,2013-09-07 16:07:00,
2013-09-07 11:12:00,86.3,67.2,29.99,WNW,297,0.0,6.0,53,0.00,,,0.00,VWS V14.01,2013-09-07 16:12:00,
2013-09-07 11:17:00,86.7,67.5,29.99,WNW,297,0.0,6.0,53,0.00,,,0.00,VWS V14.01,2013-09-07 16:17:00,
2013-09-07 11:22:00,86.9,67.7,29.99,WNW,298,5.0,6.0,53,0.00,,,0.00,VWS V14.01,2013-09-07 16:22:00,
2013-09-07 11:27:00,87.2,67.4,29.99,WNW,298,0.0,6.0,52,0.00,,,0.00,VWS V14.01,2013-09-07 16:27:00,
2013-09-07 11:30:00,82.7,67.4,30.00,WNW,290,1.0,6.0,60,0.00,,,0.00,VWS V14.01,2013-09-07 16:30:00,
2013-09-07 11:32:00,87.9,67.5,29.99,West,275,0.0,1.0,51,0.00,,,0.00,VWS V14.01,2013-09-07 16:32:00,
2013-09-07 11:37:00,88.6,67.6,29.98,WSW,252,0.0,2.0,50,0.00,,,0.00,VWS V14.01,2013-09-07 16:37:00,
2013-09-07 11:42:00,88.9,67.3,29.99,WNW,291,0.0,11.0,49,0.00,,,0.00,VWS V14.01,2013-09-07 16:42:00,
2013-09-07 11:47:00,89.0,67.4,29.99,SW,215,2.0,11.0,49,0.00,,,0.00,VWS V14.01,2013-09-07 16:47:00,
2013-09-07 11:52:00,88.8,66.0,29.98,NNW,330,1.0,11.0,47,0.00,,,0.00,VWS V14.01,2013-09-07 16:52:00,
2013-09-07 11:57:00,88.7,67.1,29.98,WNW,290,5.0,11.0,49,0.00,,,0.00,VWS V14.01,2013-09-07 16:57:00,
2013-09-07 12:02:00,88.8,67.8,29.98,WNW,291,0.0,1.0,50,0.00,,,0.00,VWS V14.01,2013-09-07 17:02:00,
2013-09-07 12:07:00,89.1,66.3,29.98,WNW,292,0.0,5.0,47,0.00,,,0.00,VWS V14.01,2013-09-07 17:07:00,
2013-09-07 12:12:00,89.2,65.7,29.98,NW,305,0.0,8.0,46,0.00,,,0.00,VWS V14.01,2013-09-07 17:12:00,
2013-09-07 12:17:00,89.3,65.8,29.97,West,265,1.0,9.0,46,0.00,,,0.00,VWS V14.01,2013-09-07 17:17:00,
2013-09-07 12:22:00,89.5,66.0,29.97,West,262,0.0,9.0,46,0.00,,,0.00,VWS V14.01,2013-09-07 17:22:00,
2013-09-07 12:27:00,89.9,65.1,29.96,West,281,1.0,9.0,44,0.00,,,0.00,VWS V14.01,2013-09-07 17:27:00,
2013-09-07 12:30:00,87.5,67.7,29.99,West,275,0.0,6.0,52,0.00,,,0.00,VWS V14.01,2013-09-07 17:30:00,
2013-09-07 12:32:00,90.1,65.3,29.96,West,278,5.0,7.0,44,0.00,,,0.00,VWS V14.01,2013-09-07 17:32:00,
2013-09-07 12:38:00,90.2,65.4,29.96,West,279,0.0,11.0,44,0.00,,,0.00,VWS V14.01,2013-09-07 17:38:00,
2013-09-07 12:43:00,90.4,64.9,29.96,SW,219,0.0,11.0,43,0.00,,,0.00,VWS V14.01,2013-09-07 17:43:00,
2013-09-07 12:48:00,90.3,64.1,29.96,West,268,0.0,11.0,42,0.00,,,0.00,VWS V14.01,2013-09-07 17:48:00,
2013-09-07 12:53:00,90.4,64.9,29.96,West,268,0.0,11.0,43,0.00,,,0.00,VWS V14.01,2013-09-07 17:53:00,
2013-09-07 12:58:00,90.7,65.8,29.95,West,279,0.0,11.0,44,0.00,,,0.00,VWS V14.01,2013-09-07 17:58:00,
2013-09-07 13:00:00,88.8,66.6,29.98,WNW,291,2.0,11.0,48,0.00,,,0.00,VWS V14.01,2013-09-07 18:00:00,
2013-09-07 13:03:00,91.2,64.2,29.95,WNW,301,0.0,1.0,41,0.00,,,0.00,VWS V14.01,2013-09-07 18:03:00,
2013-09-07 13:08:00,91.3,65.0,29.95,West,272,1.0,7.0,42,0.00,,,0.00,VWS V14.01,2013-09-07 18:08:00,
2013-09-07 13:13:00,91.4,65.1,29.95,West,272,0.0,7.0,42,0.00,,,0.00,VWS V14.01,2013-09-07 18:13:00,
2013-09-07 13:18:00,91.5,64.5,29.95,West,271,0.0,7.0,41,0.00,,,0.00,VWS V14.01,2013-09-07 18:18:00,
2013-09-07 13:23:00,91.7,65.4,29.95,SE,129,2.0,8.0,42,0.00,,,0.00,VWS V14.01,2013-09-07 18:23:00,
2013-09-07 13:28:00,92.2,64.4,29.95,WSW,254,0.0,8.0,40,0.00,,,0.00,VWS V14.01,2013-09-07 18:28:00,
2013-09-07 13:30:00,90.0,64.5,29.96,WNW,286,0.0,9.0,43,0.00,,,0.00,VWS V14.01,2013-09-07 18:30:00,
2013-09-07 13:33:00,92.4,64.6,29.95,SW,235,4.0,7.0,40,0.00,,,0.00,VWS V14.01,2013-09-07 18:33:00,
2013-09-07 13:38:00,92.4,64.6,29.95,WNW,293,0.0,7.0,40,0.00,,,0.00,VWS V14.01,2013-09-07 18:38:00,
2013-09-07 13:43:00,92.5,65.4,29.94,West,275,2.0,7.0,41,0.00,,,0.00,VWS V14.01,2013-09-07 18:43:00,
2013-09-07 13:48:00,92.8,64.9,29.94,WNW,289,0.0,7.0,40,0.00,,,0.00,VWS V14.01,2013-09-07 18:48:00,
2013-09-07 13:53:00,92.9,64.3,29.93,West,265,4.0,7.0,39,0.00,,,0.00,VWS V14.01,2013-09-07 18:53:00,
2013-09-07 13:58:00,92.6,64.8,29.92,NW,325,0.0,13.0,40,0.00,,,0.00,VWS V14.01,2013-09-07 18:58:00,
2013-09-07 14:00:00,90.9,66.0,29.95,WNW,301,0.0,11.0,44,0.00,,,0.00,VWS V14.01,2013-09-07 19:00:00,
2013-09-07 14:03:00,92.9,63.6,29.93,WNW,294,0.0,4.0,38,0.00,,,0.00,VWS V14.01,2013-09-07 19:03:00,
2013-09-07 14:08:00,93.3,63.9,29.93,SE,137,0.0,4.0,38,0.00,,,0.00,VWS V14.01,2013-09-07 19:08:00,
2013-09-07 14:13:00,93.7,64.3,29.92,ESE,117,0.0,4.0,38,0.00,,,0.00,VWS V14.01,2013-09-07 19:13:00,
2013-09-07 14:18:00,93.9,63.7,29.92,WNW,302,5.0,7.0,37,0.00,,,0.00,VWS V14.01,2013-09-07 19:18:00,
2013-09-07 14:23:00,93.8,63.6,29.92,WNW,300,5.0,7.0,37,0.00,,,0.00,VWS V14.01,2013-09-07 19:23:00,
2013-09-07 14:28:00,93.7,63.5,29.92,South,187,0.0,7.0,37,0.00,,,0.00,VWS V14.01,2013-09-07 19:28:00,
2013-09-07 14:30:00,92.3,64.5,29.95,WNW,283,1.0,8.0,40,0.00,,,0.00,VWS V14.01,2013-09-07 19:30:00,
2013-09-07 14:33:00,93.6,63.4,29.92,WNW,301,0.0,6.0,37,0.00,,,0.00,VWS V14.01,2013-09-07 19:33:00,
2013-09-07 14:38:00,93.6,62.7,29.92,WNW,302,0.0,6.0,36,0.00,,,0.00,VWS V14.01,2013-09-07 19:38:00,
2013-09-07 14:43:00,93.8,63.6,29.92,WNW,299,1.0,6.0,37,0.00,,,0.00,VWS V14.01,2013-09-07 19:43:00,
2013-09-07 14:48:00,94.2,62.4,29.91,WNW,294,4.0,6.0,35,0.00,,,0.00,VWS V14.01,2013-09-07 19:48:00,
2013-09-07 14:53:00,94.4,63.4,29.91,WNW,291,0.0,6.0,36,0.00,,,0.00,VWS V14.01,2013-09-07 19:53:00,
2013-09-07 14:58:00,94.3,64.1,29.91,West,259,0.0,6.0,37,0.00,,,0.00,VWS V14.01,2013-09-07 19:58:00,
2013-09-07 15:00:00,92.7,64.1,29.93,SSE,154,0.0,13.0,39,0.00,,,0.00,VWS V14.01,2013-09-07 20:00:00,
2013-09-07 15:03:00,94.4,62.5,29.90,SSE,150,1.0,4.0,35,0.00,,,0.00,VWS V14.01,2013-09-07 20:03:00,
2013-09-07 15:08:00,94.7,62.0,29.90,SW,232,3.0,6.0,34,0.00,,,0.00,VWS V14.01,2013-09-07 20:08:00,
2013-09-07 15:13:00,94.8,62.1,29.90,WNW,284,0.0,6.0,34,0.00,,,0.00,VWS V14.01,2013-09-07 20:13:00,
2013-09-07 15:18:00,94.8,62.1,29.89,SSE,155,0.0,6.0,34,0.00,,,0.00,VWS V14.01,2013-09-07 20:18:00,
2013-09-07 15:23:00,94.9,63.8,29.89,SE,140,0.0,6.0,36,0.00,,,0.00,VWS V14.01,2013-09-07 20:23:00,
2013-09-07 15:28:00,94.9,63.8,29.89,South,182,1.0,9.0,36,0.00,,,0.00,VWS V14.01,2013-09-07 20:28:00,
2013-09-07 15:30:00,93.6,63.4,29.92,WSW,255,2.0,7.0,37,0.00,,,0.00,VWS V14.01,2013-09-07 20:30:00,
2013-09-07 15:33:00,94.9,62.2,29.89,WSW,237,2.0,2.0,34,0.00,,,0.00,VWS V14.01,2013-09-07 20:33:00,
2013-09-07 15:38:00,94.9,63.0,29.89,WSW,257,0.0,3.0,35,0.00,,,0.00,VWS V14.01,2013-09-07 20:38:00,
2013-09-07 15:43:00,94.8,62.9,29.88,WNW,284,1.0,7.0,35,0.00,,,0.00,VWS V14.01,2013-09-07 20:43:00,
2013-09-07 15:48:00,94.8,63.7,29.88,WNW,285,0.0,7.0,36,0.00,,,0.00,VWS V14.01,2013-09-07 20:48:00,
2013-09-07 15:53:00,94.9,63.0,29.88,WNW,285,2.0,7.0,35,0.00,,,0.00,VWS V14.01,2013-09-07 20:53:00,
2013-09-07 15:58:00,95.1,62.3,29.88,WNW,296,5.0,7.0,34,0.00,,,0.00,VWS V14.01,2013-09-07 20:58:00,
2013-09-07 16:00:00,94.4,63.4,29.91,West,259,0.0,6.0,36,0.00,,,0.00,VWS V14.01,2013-09-07 21:00:00,
2013-09-07 16:03:00,95.2,62.4,29.88,NW,315,1.0,4.0,34,0.00,,,0.00,VWS V14.01,2013-09-07 21:03:00,
2013-09-07 16:08:00,95.3,63.3,29.88,West,279,4.0,7.0,35,0.00,,,0.00,VWS V14.01,2013-09-07 21:08:00,
2013-09-07 16:13:00,95.0,62.3,29.88,West,271,1.0,11.0,34,0.00,,,0.00,VWS V14.01,2013-09-07 21:13:00,
2013-09-07 16:18:00,94.8,62.1,29.88,WNW,292,0.0,11.0,34,0.00,,,0.00,VWS V14.01,2013-09-07 21:18:00,
2013-09-07 16:23:00,94.7,62.8,29.87,WNW,288,0.0,11.0,35,0.00,,,0.00,VWS V14.01,2013-09-07 21:23:00,
2013-09-07 16:28:00,94.9,63.0,29.87,WNW,292,1.0,11.0,35,0.00,,,0.00,VWS V14.01,2013-09-07 21:28:00,
2013-09-07 16:30:00,94.9,62.2,29.89,SW,229,1.0,9.0,34,0.00,,,0.00,VWS V14.01,2013-09-07 21:30:00,
2013-09-07 16:33:00,95.0,63.9,29.87,WNW,288,0.0,5.0,36,0.00,,,0.00,VWS V14.01,2013-09-07 21:33:00,
2013-09-07 16:38:00,94.7,63.6,29.87,WNW,288,0.0,5.0,36,0.00,,,0.00,VWS V14.01,2013-09-07 21:38:00,
2013-09-07 16:43:00,94.6,63.5,29.87,WNW,288,1.0,5.0,36,0.00,,,0.00,VWS V14.01,2013-09-07 21:43:00,
2013-09-07 16:48:00,94.5,64.2,29.87,WNW,292,0.0,7.0,37,0.00,,,0.00,VWS V14.01,2013-09-07 21:48:00,
2013-09-07 16:53:00,94.4,62.5,29.87,WNW,298,0.0,7.0,35,0.00,,,0.00,VWS V14.01,2013-09-07 21:53:00,
2013-09-07 16:58:00,94.2,63.2,29.87,WNW,298,0.0,7.0,36,0.00,,,0.00,VWS V14.01,2013-09-07 21:58:00,
2013-09-07 17:00:00,95.1,62.3,29.88,NW,315,0.0,7.0,34,0.00,,,0.00,VWS V14.01,2013-09-07 22:00:00,
2013-09-07 17:03:00,93.7,63.5,29.87,WNW,301,0.0,4.0,37,0.00,,,0.00,VWS V14.01,2013-09-07 22:03:00,
2013-09-07 17:08:00,93.3,63.2,29.87,WNW,301,1.0,4.0,37,0.00,,,0.00,VWS V14.01,2013-09-07 22:08:00,
2013-09-07 17:13:00,92.9,64.3,29.87,WNW,301,0.0,5.0,39,0.00,,,0.00,VWS V14.01,2013-09-07 22:13:00,
2013-09-07 17:18:00,92.4,64.6,29.88,WNW,301,0.0,5.0,40,0.00,,,0.00,VWS V14.01,2013-09-07 22:18:00,
2013-09-07 17:23:00,92.1,63.6,29.88,WNW,301,0.0,5.0,39,0.00,,,0.00,VWS V14.01,2013-09-07 22:23:00,
2013-09-07 17:28:00,92.3,64.5,29.88,WNW,301,0.0,5.0,40,0.00,,,0.00,VWS V14.01,2013-09-07 22:28:00,
2013-09-07 17:30:00,95.0,63.1,29.87,WNW,286,0.0,11.0,35,0.00,,,0.00,VWS V14.01,2013-09-07 22:30:00,
2013-09-07 17:33:00,92.7,64.1,29.88,WNW,301,1.0,1.0,39,0.00,,,0.00,VWS V14.01,2013-09-07 22:33:00,
2013-09-07 17:38:00,93.0,64.4,29.88,WNW,301,1.0,1.0,39,0.00,,,0.00,VWS V14.01,2013-09-07 22:38:00,
2013-09-07 17:43:00,93.1,63.8,29.88,WNW,301,0.0,1.0,38,0.00,,,0.00,VWS V14.01,2013-09-07 22:43:00,
2013-09-07 17:48:00,93.3,63.9,29.88,WNW,301,0.0,4.0,38,0.00,,,0.00,VWS V14.01,2013-09-07 22:48:00,
2013-09-07 17:53:00,93.3,66.1,29.88,WNW,301,0.0,4.0,41,0.00,,,0.00,VWS V14.01,2013-09-07 22:53:00,
2013-09-07 17:58:00,92.9,65.8,29.89,WNW,300,0.0,6.0,41,0.00,,,0.00,VWS V14.01,2013-09-07 22:58:00,
2013-09-07 18:00:00,94.0,63.0,29.87,WNW,301,4.0,7.0,36,0.00,,,0.00,VWS V14.01,2013-09-07 23:00:00,
2013-09-07 18:03:00,92.5,66.1,29.88,WNW,300,0.0,1.0,42,0.00,,,0.00,VWS V14.01,2013-09-07 23:03:00,
2013-09-07 18:08:00,92.2,65.8,29.88,WNW,300,0.0,1.0,42,0.00,,,0.00,VWS V14.01,2013-09-07 23:08:00,
2013-09-07 18:13:00,92.1,65.7,29.88,WNW,300,0.0,1.0,42,0.00,,,0.00,VWS V14.01,2013-09-07 23:13:00,
2013-09-07 18:18:00,92.1,66.4,29.88,WNW,300,0.0,1.0,43,0.00,,,0.00,VWS V14.01,2013-09-07 23:18:00,
2013-09-07 18:23:00,92.1,67.1,29.88,WNW,300,0.0,1.0,44,0.00,,,0.00,VWS V14.01,2013-09-07 23:23:00,
2013-09-07 18:28:00,91.9,68.2,29.88,WNW,300,0.0,1.0,46,0.00,,,0.00,VWS V14.01,2013-09-07 23:28:00,
2013-09-07 18:30:00,92.5,64.0,29.88,WNW,301,0.0,5.0,39,0.00,,,0.00,VWS V14.01,2013-09-07 23:30:00,
2013-09-07 18:33:00,91.6,67.3,29.88,WNW,300,0.0,1.0,45,0.00,,,0.00,VWS V14.01,2013-09-07 23:33:00,
2013-09-07 18:38:00,91.1,67.5,29.88,WNW,300,0.0,1.0,46,0.00,,,0.00,VWS V14.01,2013-09-07 23:38:00,
2013-09-07 18:43:00,90.6,67.6,29.88,WNW,300,0.0,1.0,47,0.00,,,0.00,VWS V14.01,2013-09-07 23:43:00,
2013-09-07 18:48:00,90.0,67.1,29.88,WNW,300,0.0,1.0,47,0.00,,,0.00,VWS V14.01,2013-09-07 23:48:00,
2013-09-07 18:53:00,89.6,66.7,29.88,WNW,300,0.0,1.0,47,0.00,,,0.00,VWS V14.01,2013-09-07 23:53:00,
2013-09-07 18:58:00,89.1,66.9,29.89,WNW,300,0.0,1.0,48,0.00,,,0.00,VWS V14.01,2013-09-07 23:58:00,
2013-09-07 19:00:00,92.8,65.7,29.88,WNW,300,0.0,6.0,41,0.00,,,0.00,VWS V14.01,2013-09-08 00:00:00,
2013-09-07 19:03:00,88.5,66.9,29.88,WNW,300,0.0,0.0,49,0.00,,,0.00,VWS V14.01,2013-09-08 00:03:00,
2013-09-07 19:08:00,88.0,67.1,29.89,WNW,300,0.0,0.0,50,0.00,,,0.00,VWS V14.01,2013-09-08 00:08:00,
2013-09-07 19:14:00,87.6,67.2,29.89,WNW,300,0.0,0.0,51,0.00,,,0.00,VWS V14.01,2013-09-08 00:14:00,
2013-09-07 19:19:00,87.2,67.4,29.89,WNW,300,0.0,0.0,52,0.00,,,0.00,VWS V14.01,2013-09-08 00:19:00,
2013-09-07 19:24:00,86.8,67.1,29.89,WNW,300,0.0,0.0,52,0.00,,,0.00,VWS V14.01,2013-09-08 00:24:00,
2013-09-07 19:29:00,86.5,67.3,29.89,WNW,300,0.0,0.0,53,0.00,,,0.00,VWS V14.01,2013-09-08 00:29:00,
2013-09-07 19:30:00,91.8,67.4,29.88,WNW,300,0.0,2.0,45,0.00,,,0.00,VWS V14.01,2013-09-08 00:30:00,
2013-09-07 19:34:00,86.1,67.5,29.89,WNW,300,0.0,0.0,54,0.00,,,0.00,VWS V14.01,2013-09-08 00:34:00,
2013-09-07 19:39:00,85.6,67.6,29.89,WNW,300,0.0,0.0,55,0.00,,,0.00,VWS V14.01,2013-09-08 00:39:00,
2013-09-07 19:44:00,85.2,67.8,29.89,WNW,300,0.0,0.0,56,0.00,,,0.00,VWS V14.01,2013-09-08 00:44:00,
2013-09-07 19:49:00,84.8,67.9,29.89,WNW,300,0.0,0.0,57,0.00,,,0.00,VWS V14.01,2013-09-08 00:49:00,
2013-09-07 19:54:00,84.3,67.4,29.89,WNW,300,0.0,0.0,57,0.00,,,0.00,VWS V14.01,2013-09-08 00:54:00,
2013-09-07 19:59:00,84.0,67.7,29.89,WNW,300,0.0,0.0,58,0.00,,,0.00,VWS V14.01,2013-09-08 00:59:00,
2013-09-07 20:00:00,88.9,67.3,29.88,WNW,300,0.0,1.0,49,0.00,,,0.00,VWS V14.01,2013-09-08 01:00:00,
2013-09-07 20:04:00,83.6,67.8,29.89,WNW,300,0.0,0.0,59,0.00,,,0.00,VWS V14.01,2013-09-08 01:04:00,
2013-09-07 20:09:00,83.2,67.4,29.88,WNW,300,0.0,0.0,59,0.00,,,0.00,VWS V14.01,2013-09-08 01:09:00,
2013-09-07 20:14:00,83.0,67.2,29.88,WNW,300,0.0,0.0,59,0.00,,,0.00,VWS V14.01,2013-09-08 01:14:00,
2013-09-07 20:19:00,82.8,67.0,29.88,WNW,300,0.0,0.0,59,0.00,,,0.00,VWS V14.01,2013-09-08 01:19:00,
2013-09-07 20:24:00,82.6,66.3,29.88,WNW,300,0.0,0.0,58,0.00,,,0.00,VWS V14.01,2013-09-08 01:24:00,
2013-09-07 20:29:00,82.4,66.2,29.88,WNW,300,0.0,0.0,58,0.00,,,0.00,VWS V14.01,2013-09-08 01:29:00,
2013-09-07 20:30:00,86.4,67.8,29.89,WNW,300,0.0,0.0,54,0.00,,,0.00,VWS V14.01,2013-09-08 01:30:00,
2013-09-07 20:34:00,82.3,67.0,29.88,WNW,300,0.0,0.0,60,0.00,,,0.00,VWS V14.01,2013-09-08 01:34:00,
2013-09-07 20:39:00,82.1,66.4,29.88,WNW,300,0.0,0.0,59,0.00,,,0.00,VWS V14.01,2013-09-08 01:39:00,
2013-09-07 20:44:00,81.9,66.7,29.87,WNW,300,0.0,0.0,60,0.00,,,0.00,VWS V14.01,2013-09-08 01:44:00,
2013-09-07 20:49:00,81.8,67.1,29.87,WNW,300,0.0,0.0,61,0.00,,,0.00,VWS V14.01,2013-09-08 01:49:00,
2013-09-07 20:54:00,81.8,67.1,29.88,WNW,300,0.0,0.0,61,0.00,,,0.00,VWS V14.01,2013-09-08 01:54:00,
2013-09-07 20:59:00,82.0,66.8,29.87,WNW,300,0.0,0.0,60,0.00,,,0.00,VWS V14.01,2013-09-08 01:59:00,
2013-09-07 21:00:00,83.9,67.6,29.89,WNW,300,0.0,0.0,58,0.00,,,0.00,VWS V14.01,2013-09-08 02:00:00,
2013-09-07 21:04:00,82.2,66.0,29.88,WNW,300,0.0,0.0,58,0.00,,,0.00,VWS V14.01,2013-09-08 02:04:00,
2013-09-07 21:09:00,82.4,66.2,29.88,WNW,300,0.0,0.0,58,0.00,,,0.00,VWS V14.01,2013-09-08 02:09:00,
2013-09-07 21:14:00,82.4,65.7,29.88,WNW,300,0.0,0.0,57,0.00,,,0.00,VWS V14.01,2013-09-08 02:14:00,
2013-09-07 21:19:00,82.5,65.2,29.88,WNW,300,0.0,0.0,56,0.00,,,0.00,VWS V14.01,2013-09-08 02:19:00,
2013-09-07 21:24:00,82.4,65.1,29.88,WNW,300,0.0,0.0,56,0.00,,,0.00,VWS V14.01,2013-09-08 02:24:00,
2013-09-07 21:29:00,82.3,65.1,29.88,WNW,300,0.0,0.0,56,0.00,,,0.00,VWS V14.01,2013-09-08 02:29:00,
2013-09-07 21:30:00,82.4,66.2,29.88,WNW,300,0.0,0.0,58,0.00,,,0.00,VWS V14.01,2013-09-08 02:30:00,
2013-09-07 21:34:00,82.1,64.9,29.88,WNW,300,0.0,0.0,56,0.00,,,0.00,VWS V14.01,2013-09-08 02:34:00,
2013-09-07 21:39:00,81.9,64.7,29.88,WNW,300,0.0,0.0,56,0.00,,,0.00,VWS V14.01,2013-09-08 02:39:00,
2013-09-07 21:44:00,81.9,64.7,29.88,WNW,300,0.0,0.0,56,0.00,,,0.00,VWS V14.01,2013-09-08 02:44:00,
2013-09-07 21:49:00,81.8,64.6,29.88,WNW,300,0.0,0.0,56,0.00,,,0.00,VWS V14.01,2013-09-08 02:49:00,
2013-09-07 21:54:00,81.7,64.5,29.88,WNW,300,0.0,0.0,56,0.00,,,0.00,VWS V14.01,2013-09-08 02:54:00,
2013-09-07 21:59:00,81.5,64.3,29.88,WNW,300,0.0,0.0,56,0.00,,,0.00,VWS V14.01,2013-09-08 02:59:00,
2013-09-07 22:00:00,82.0,66.3,29.88,WNW,300,0.0,0.0,59,0.00,,,0.00,VWS V14.01,2013-09-08 03:00:00,
2013-09-07 22:04:00,81.5,64.3,29.88,WNW,300,0.0,0.0,56,0.00,,,0.00,VWS V14.01,2013-09-08 03:04:00,
2013-09-07 22:09:00,81.3,64.1,29.88,WNW,300,0.0,0.0,56,0.00,,,0.00,VWS V14.01,2013-09-08 03:09:00,
2013-09-07 22:14:00,81.2,64.5,29.87,WNW,300,0.0,0.0,57,0.00,,,0.00,VWS V14.01,2013-09-08 03:14:00,
2013-09-07 22:19:00,81.0,63.8,29.87,WNW,300,0.0,0.0,56,0.00,,,0.00,VWS V14.01,2013-09-08 03:19:00,
2013-09-07 22:24:00,81.0,63.8,29.88,WNW,300,0.0,0.0,56,0.00,,,0.00,VWS V14.01,2013-09-08 03:24:00,
2013-09-07 22:29:00,81.0,63.8,29.88,WNW,300,0.0,0.0,56,0.00,,,0.00,VWS V14.01,2013-09-08 03:29:00,
2013-09-07 22:30:00,82.2,65.0,29.88,WNW,300,0.0,0.0,56,0.00,,,0.00,VWS V14.01,2013-09-08 03:30:00,
2013-09-07 22:34:00,81.0,63.8,29.88,WNW,300,0.0,0.0,56,0.00,,,0.00,VWS V14.01,2013-09-08 03:34:00,
2013-09-07 22:39:00,81.1,63.9,29.88,WNW,300,0.0,0.0,56,0.00,,,0.00,VWS V14.01,2013-09-08 03:39:00,
2013-09-07 22:44:00,81.2,64.0,29.87,WNW,300,0.0,0.0,56,0.00,,,0.00,VWS V14.01,2013-09-08 03:44:00,
2013-09-07 22:49:00,81.1,63.9,29.88,WNW,300,0.0,0.0,56,0.00,,,0.00,VWS V14.01,2013-09-08 03:49:00,
2013-09-07 22:54:00,81.1,64.4,29.87,WNW,300,0.0,0.0,57,0.00,,,0.00,VWS V14.01,2013-09-08 03:54:00,
2013-09-07 22:59:00,80.9,64.2,29.88,WNW,300,0.0,0.0,57,0.00,,,0.00,VWS V14.01,2013-09-08 03:59:00,
2013-09-07 23:00:00,81.5,64.3,29.88,WNW,300,0.0,0.0,56,0.00,,,0.00,VWS V14.01,2013-09-08 04:00:00,
2013-09-07 23:04:00,80.8,63.7,29.88,WNW,300,0.0,0.0,56,0.00,,,0.00,VWS V14.01,2013-09-08 04:04:00,
2013-09-07 23:09:00,80.7,63.6,29.88,WNW,300,0.0,0.0,56,0.00,,,0.00,VWS V14.01,2013-09-08 04:09:00,
2013-09-07 23:14:00,80.5,63.9,29.88,WNW,300,0.0,0.0,57,0.00,,,0.00,VWS V14.01,2013-09-08 04:14:00,
2013-09-07 23:19:00,80.4,63.8,29.88,WNW,300,0.0,0.0,57,0.00,,,0.00,VWS V14.01,2013-09-08 04:19:00,
2013-09-07 23:24:00,80.2,63.6,29.88,WNW,300,0.0,0.0,57,0.00,,,0.00,VWS V14.01,2013-09-08 04:24:00,
2013-09-07 23:29:00,80.2,63.6,29.88,WNW,300,0.0,0.0,57,0.00,,,0.00,VWS V14.01,2013-09-08 04:29:00,
2013-09-07 23:30:00,81.0,63.8,29.88,WNW,300,0.0,0.0,56,0.00,,,0.00,VWS V14.01,2013-09-08 04:30:00,
2013-09-07 23:34:00,80.2,63.6,29.88,WNW,300,0.0,0.0,57,0.00,,,0.00,VWS V14.01,2013-09-08 04:34:00,
2013-09-07 23:39:00,80.2,63.6,29.88,WNW,300,0.0,0.0,57,0.00,,,0.00,VWS V14.01,2013-09-08 04:39:00,
2013-09-07 23:44:00,80.2,63.6,29.88,WNW,300,0.0,0.0,57,0.00,,,0.00,VWS V14.01,2013-09-08 04:44:00,
2013-09-07 23:49:00,80.1,64.0,29.88,WNW,300,0.0,0.0,58,0.00,,,0.00,VWS V14.01,2013-09-08 04:49:00,
2013-09-07 23:54:00,80.1,64.0,29.88,WNW,300,0.0,0.0,58,0.00,,,0.00,VWS V14.01,2013-09-08 04:54:00,
2013-09-07 23:59:00,80.0,63.9,29.88,WNW,300,0.0,0.0,58,0.00,,,0.00,VWS V14.01,2013-09-08 04:59:00,